TimeEDT,TemperatureF,Dew PointF,Humidity,Sea Level PressureIn,VisibilityMPH,Wind Direction,Wind SpeedMPH,Gust SpeedMPH,PrecipitationIn,Events,Conditions,WindDirDegrees,DateUTC
12:56 AM,60.8,55.4,82,29.93,10.0,South,5.8,-,N/A,,Clear,180,2012-10-15 04:56:00
1:56 AM,61.0,55.9,83,29.91,10.0,South,4.6,-,N/A,,Clear,180,2012-10-15 05:56:00
2:56 AM,60.1,55.9,86,29.88,10.0,South,4.6,-,N/A,,Partly Cloudy,170,2012-10-15 06:56:00
3:56 AM,61.0,57.0,87,29.85,10.0,South,4.6,-,N/A,,Mostly Cloudy,170,2012-10-15 07:56:00
4:56 AM,62.1,57.9,86,29.82,10.0,South,5.8,-,N/A,,Mostly Cloudy,170,2012-10-15 08:56:00
5:56 AM,62.1,57.9,86,29.81,10.0,SSE,5.8,-,N/A,,Overcast,160,2012-10-15 09:56:00
6:56 AM,63.0,57.9,84,29.80,10.0,South,4.6,-,N/A,,Overcast,170,2012-10-15 10:56:00
7:56 AM,62.6,57.2,82,29.79,10.0,SSE,5.8,-,N/A,,Mostly Cloudy,160,2012-10-15 11:56:00
8:56 AM,64.9,59.0,81,29.79,10.0,South,8.1,-,N/A,,Mostly Cloudy,180,2012-10-15 12:56:00
9:56 AM,66.9,59.0,76,29.78,10.0,South,8.1,-,N/A,,Mostly Cloudy,180,2012-10-15 13:56:00
10:56 AM,69.1,59.0,70,29.76,10.0,South,5.8,-,N/A,,Mostly Cloudy,190,2012-10-15 14:56:00
11:56 AM,70.0,57.9,65,29.74,10.0,SSW,4.6,-,N/A,,Overcast,200,2012-10-15 15:56:00
12:56 PM,70.0,59.0,68,29.71,10.0,Variable,5.8,-,N/A,,Mostly Cloudy,0,2012-10-15 16:56:00
1:56 PM,69.8,57.2,64,29.70,10.0,Variable,5.8,-,N/A,,Mostly Cloudy,0,2012-10-15 17:56:00
2:56 PM,69.1,57.9,68,29.67,10.0,SSW,4.6,-,N/A,,Mostly Cloudy,210,2012-10-15 18:56:00
3:56 PM,68.0,57.9,70,29.66,10.0,Variable,4.6,-,0.00,,Mostly Cloudy,0,2012-10-15 19:56:00
4:56 PM,66.0,59.0,78,29.66,9.0,West,6.9,-,0.00,Rain,Rain,270,2012-10-15 20:56:00
5:07 PM,64.4,60.8,88,29.67,2.5,Variable,5.8,-,0.03,Rain,Rain,0,2012-10-15 21:07:00
5:56 PM,63.0,61.0,93,29.65,6.0,Calm,Calm,-,0.12,Rain,Light Rain,0,2012-10-15 21:56:00
6:56 PM,62.6,60.8,94,29.65,4.0,West,3.5,-,N/A,Rain,Light Rain,280,2012-10-15 22:56:00
7:08 PM,62.6,60.8,94,29.65,4.0,Calm,Calm,-,0.00,Rain,Light Rain,0,2012-10-15 23:08:00
7:32 PM,62.6,60.8,94,29.65,1.5,West,4.6,-,0.03,Rain,Rain,270,2012-10-15 23:32:00
7:56 PM,61.0,57.0,87,29.65,1.5,West,8.1,20.7,0.10,Rain,Rain,280,2012-10-15 23:56:00
8:00 PM,60.8,57.2,88,29.66,2.0,West,5.8,-,0.01,Rain,Rain,280,2012-10-16 00:00:00
8:51 PM,60.8,57.2,88,29.65,8.0,NW,3.5,-,0.01,Rain,Rain,320,2012-10-16 00:51:00
8:56 PM,59.0,57.0,93,29.64,8.0,NW,3.5,-,0.01,Rain,Rain,310,2012-10-16 00:56:00
9:56 PM,59.0,57.0,93,29.65,7.0,Calm,Calm,-,0.00,Rain,Rain,0,2012-10-16 01:56:00
10:56 PM,59.0,55.9,90,29.65,10.0,West,3.5,-,0.00,,Mostly Cloudy,260,2012-10-16 02:56:00
11:56 PM,57.9,55.0,90,29.64,10.0,West,5.8,-,N/A,,Overcast,280,2012-10-16 03:56:00